Temperature
13 13 13 13 13 13 13 12 12 12 12 12 11 11 11 11 11 11 11 11 11 11 11 11 11 11 11 11 11 11 10 10 10 10 11 11 11 11 11 11 11 11 11
13 13 13 13 13 12 12 12 12 12 11 11 11 11 11 11 11 11 11 10 10 10 10 10 10 10 10 10 10 10 10 10 10 10 10 10 10 10 10 10 10 10 10
13 13 13 12 12 12 12 12 11 11 11 11 11 11 10 10 10 10 10 10 10 10 10 10 10 10 10 10 10 10 10 10 9 9 9 9 9 10 10 10 10 10 10
13 12 12 12 12 12 12 11 11 11 11 11 10 10 10 10 10 10 10 10 10 9 9 9 9 9 9 9 9 9 9 9 9 9 9 9 9 9 9 9 9 9 9
12 12 12 12 12 11 11 11 11 11 10 10 10 10 10 10 10 10 10 9 9 9 9 9 9 9 9 9 9 9 9 9 8 8 8 8 8 9 9 9 9 9 9
12 12 12 11 11 11 11 11 10 10 10 10 10 9 9 9 9 9 9 9 9 9 9 9 9 9 9 9 8 8 8 8 8 8 8 8 8 8 8 8 8 8 8
11 11 11 11 11 11 10 10 10 10 9 9 9 9 9 9 9 9 9 9 8 8 8 8 8 8 8 8 8 8 8 8 8 8 8 8 7 7 7 8 8 8 8
11 10 10 10 10 10 10 10 9 9 9 9 9 8 8 8 8 8 8 8 8 8 8 8 7 7 7 7 7 8 7 7 7 7 7 7 7 7 7 7 7 7 7
10 10 10 10 10 10 9 9 9 9 8 8 8 8 8 8 8 8 8 8 7 7 7 7 7 7 7 7 7 7 7 7 7 7 7 7 7 7 7 7 7 7 6
10 9 9 9 9 9 9 9 8 8 8 8 8 8 7 7 7 7 7 7 7 7 7 7 7 7 6 6 6 6 6 6 6 6 6 6 6 6 6 6 6 6 6
9 9 9 9 9 9 8 8 8 8 8 8 7 7 7 7 7 6 6 6 6 6 6 6 6 6 6 6 6 6 6 6 6 6 6 6 6 6 6 6 6 6 6
9 9 8 8 8 8 8 8 7 7 7 7 7 6 6 6 6 6 6 6 6 6 6 6 6 6 6 6 6 5 5 5 5 5 5 5 5 5 5 5 5 5 5
9 8 8 8 7 7 7 7 7 6 6 6 6 5 5 5 5 5 5 5 5 5 5 5 5 5 5 5 5 5 5 5 5 5 5 5 5 5 5 5 5 5 5
8 8 7 7 7 7 6 6 6 6 5 5 5 5 5 5 5 5 5 5 5 5 5 5 5 5 5 5 5 5 5 5 5 5 5 5 4 4 4 4 4 5 5
8 7 7 7 6 6 6 6 5 5 5 5 5 5 5 5 5 5 5 4 4 4 4 4 4 4 4 4 4 4 4 4 4 4 4 4 4 4 4 4 4 4 4
7 7 6 6 6 6 5 5 5 5 4 4 5 5 4 4 4 4 4 4 4 4 4 4 4 3 3 3 3 4 4 4 4 4 4 3 3 4 4 4 4 4 4
7 6 6 6 5 5 5 5 4 4 4 4 4 4 4 4 4 4 4 4 4 3 3 3 3 3 3 3 3 3 3 3 3 3 3 3 3 3 3 3 3 3 3
6 6 5 5 5 4 4 4 4 4 3 3 3 3 3 3 3 3 3 3 3 3 2 2 2 2 2 2 2 2 2 2 2 3 3 3 3 3 3 3 3 3 3
5 5 5 5 4 4 4 3 3 3 3 3 3 3 3 3 3 3 2 2 2 2 2 2 2 2 2 2 2 2 2 2 2 2 2 2 2 2 2 2 3 3 3
5 5 4 4 4 4 3 3 3 2 2 2 2 2 2 2 2 2 2 2 2 1 1 1 1 1 1 1 1 1 1 1 1 2 2 2 2 2 2 2 2 2 2
4 4 4 4 3 3 3 3 2 2 2 2 2 2 2 2 2 2 1 1 1 1 1 1 1 1 1 1 1 1 1 1 1 1 1 1 1 1 1 1 1 2 2
4 4 3 3 3 2 2 2 2 2 2 2 1 1 1 1 1 1 1 1 1 1 1 1 1 1 0 0 0 1 1 1 1 1 1 1 1 1 1 1 1 1 1
3 3 3 2 2 2 2 1 1 1 1 1 1 1 1 1 1 0 0 0 0 0 0 0 0 0 -0 -0 0 0 0 0 1 0 1 1 1 1 1 1 1 1 1
3 2 2 2 2 1 1 1 1 1 1 1 1 1 0 0 0 0 -0 -0 -0 -0 -0 -0 -0 -1 -0 -0 -0 -0 0 0 0 0 0 0 0 0 0 0 0 0 0
2 2 2 1 1 1 1 1 1 0 0 0 0 0 -0 -0 -0 -0 -0 -0 -1 -1 -1 -1 -1 -1 -1 -1 -1 -0 -0 -0 -0 -0 -0 0 0 0 0 0 0 0 0
2 1 1 1 1 1 0 0 0 0 -0 -0 -0 -0 -0 -1 -1 -1 -1 -1 -1 -1 -1 -1 -1 -1 -1 -1 -1 -1 -0 -0 -0 -0 -0 -0 -0 -0 -0 -0 -0 -0 -0
Wind_Speed
4 3 2 2 2 2 2 1 1 1 0 0 0 1 1 1 1 1 2 2 2 2 2 2 2 2 1 1 1 1 1 1 2 3 2 2 1 1 1 1 1 0 1
4 3 3 2 2 2 1 1 1 0 0 1 1 1 1 2 2 1 2 2 2 2 2 2 2 2 1 1 1 1 1 1 1 2 2 2 1 0 1 1 1 1 0
4 3 3 2 1 2 1 1 0 0 0 1 1 1 2 2 2 3 2 2 2 3 2 2 3 1 1 1 1 1 1 1 1 1 2 1 1 0 1 1 2 1 2
4 3 3 3 2 1 1 1 1 1 1 2 2 2 2 2 3 3 3 3 3 3 2 2 2 1 1 1 1 1 1 0 0 1 2 1 1 1 0 0 1 1 2
3 3 2 2 2 2 2 2 1 1 2 2 2 3 3 3 3 5 5 4 4 4 3 2 1 1 1 1 1 1 1 0 1 1 2 1 1 1 1 1 0 1 2
4 3 2 2 2 2 2 2 2 1 2 2 2 2 3 3 6 7 6 5 4 3 3 3 1 1 1 2 2 3 2 1 2 2 2 2 3 2 1 1 0 1 3
4 3 3 2 2 2 2 2 1 1 1 1 1 2 2 2 5 7 7 5 4 4 3 3 3 2 2 1 2 3 3 4 3 2 2 3 3 3 1 1 2 2 3
3 3 3 2 2 2 2 1 1 1 1 1 1 1 0 2 4 6 8 5 4 4 3 3 2 1 1 1 2 2 2 2 2 2 3 4 3 3 2 3 3 2 3
3 3 3 2 2 2 1 1 0 0 1 1 1 1 1 1 3 4 6 4 4 4 3 3 2 1 2 2 1 2 2 2 2 3 3 4 5 5 3 1 2 2 3
3 3 2 2 2 2 1 1 0 0 0 1 1 1 2 1 2 4 5 3 3 4 3 3 3 2 4 3 1 2 3 3 3 3 3 4 3 4 4 3 3 3 3
3 3 2 2 2 1 1 1 0 0 0 1 1 1 1 1 2 3 4 3 3 3 3 3 2 3 4 5 4 3 4 4 3 2 2 2 2 2 2 2 2 3 3
3 3 3 2 2 1 1 1 0 0 0 1 1 1 1 1 1 2 4 5 5 3 3 2 3 5 6 6 5 5 5 4 2 2 2 2 2 2 2 1 1 2 3
4 3 3 2 2 2 2 1 0 0 0 1 1 1 2 2 2 3 4 5 6 4 3 4 6 7 6 4 5 6 4 2 2 2 3 3 2 2 1 1 2 2 3
4 3 3 2 2 2 1 1 1 1 1 1 1 1 1 2 2 2 3 3 4 4 3 4 7 6 5 4 4 4 3 2 2 3 3 2 2 2 2 2 2 3 3
4 3 2 2 2 2 1 0 1 0 1 1 1 1 1 1 2 4 3 2 3 3 3 3 3 3 3 2 2 2 2 2 2 2 2 2 2 2 2 2 2 2 3
3 3 2 2 2 1 1 1 1 1 1 1 1 1 1 2 3 4 4 4 4 4 3 2 3 2 2 3 3 3 2 2 2 1 2 2 2 2 3 2 2 2 3
3 3 2 2 2 1 1 1 0 2 2 1 1 2 1 2 3 3 4 4 4 3 2 2 2 3 3 3 3 3 3 3 2 2 2 2 2 3 2 2 3 3 3
3 2 2 2 2 2 1 1 1 1 1 1 2 1 1 2 2 3 4 3 3 2 1 2 2 3 3 3 3 3 3 3 3 3 2 2 2 2 2 2 3 3 3
2 2 2 1 2 2 1 1 1 1 0 0 1 1 2 2 2 2 2 1 1 1 2 2 3 3 3 3 3 3 3 3 3 3 3 3 2 2 2 2 2 3 3
2 3 2 1 1 1 1 1 1 1 1 0 0 0 1 1 1 2 1 1 1 2 2 2 2 3 3 3 3 3 3 3 3 3 3 3 3 2 3 3 3 3 3
2 2 3 2 2 1 1 1 1 1 1 0 0 0 0 0 1 1 1 1 1 2 2 2 2 3 3 3 3 3 4 3 4 4 3 3 3 3 3 3 3 3 3
2 2 2 2 2 1 1 1 0 0 0 0 0 0 1 0 1 1 1 2 1 1 2 2 2 2 3 3 3 3 4 4 4 4 4 3 3 3 3 3 2 2 2
2 2 2 1 1 1 1 1 1 1 1 0 0 0 0 0 1 1 1 2 2 2 2 2 2 2 3 3 3 3 3 4 4 4 4 4 3 3 3 3 2 2 2
2 2 2 2 2 2 1 1 1 1 1 0 0 0 0 1 1 1 2 2 2 2 3 2 2 3 4 4 4 4 5 6 6 4 4 4 4 3 3 3 3 3 3
1 1 1 2 2 2 1 1 1 0 0 0 0 1 1 1 1 1 2 2 2 2 3 3 3 4 4 5 5 6 7 8 7 7 5 4 4 4 3 3 3 3 3
1 1 1 1 1 1 1 1 1 1 0 0 0 0 1 1 1 1 2 2 2 2 3 3 4 5 6 6 6 7 8 8 8 8 6 4 4 3 3 2 3 3 3
Wind_Direction
190 191 188 182 180 176 163 138 166 222 192 188 226 287 297 308 298 301 280 282 288 286 298 311 309 308 321 320 313 294 269 184 252 295 311 314 344 56 47 56 320 93 174
178 177 191 180 174 183 167 148 187 237 334 326 340 329 327 327 322 321 299 312 310 297 292 295 287 296 296 303 300 293 282 223 204 265 294 307 330 42 66 18 347 329 332
168 170 174 150 152 180 177 154 165 77 20 343 17 358 346 341 342 328 324 315 300 300 300 295 297 308 301 316 313 317 297 283 198 223 264 277 314 307 46 12 348 344 320
163 166 167 154 165 173 140 116 74 48 11 7 7 356 358 1 348 336 332 320 309 298 296 302 309 335 316 316 302 302 300 289 241 221 239 267 284 293 65 346 335 347 330
161 165 157 143 139 102 78 74 60 30 2 17 14 3 14 8 356 352 338 329 323 322 321 324 338 12 24 9 341 321 326 278 253 233 242 279 278 291 274 248 278 328 322
163 157 135 120 108 98 85 71 58 31 11 19 11 13 15 2 358 354 345 328 322 319 311 310 311 337 10 359 11 2 347 262 242 232 246 247 261 262 268 250 250 320 307
155 141 127 119 116 112 92 86 71 33 48 24 358 29 34 350 344 344 339 329 315 308 307 305 312 335 359 2 341 326 319 310 277 227 231 249 257 254 240 265 277 276 271
145 138 130 129 130 119 109 113 91 37 36 3 347 5 33 314 337 345 343 330 314 307 303 299 299 307 318 332 322 311 288 286 280 259 231 243 256 253 237 239 240 265 277
150 149 144 142 137 135 154 163 118 48 352 339 334 320 305 300 344 355 351 326 316 312 311 313 311 326 342 359 336 302 298 286 303 300 287 276 270 275 269 253 250 242 268
158 150 139 141 145 161 184 157 107 93 330 320 314 311 311 313 348 8 355 328 323 323 330 337 343 359 0 348 295 265 275 282 289 289 292 289 279 268 264 235 224 237 254
145 142 148 151 153 154 128 114 94 103 14 296 313 320 341 0 5 10 357 346 332 327 332 339 337 346 334 326 308 263 263 287 283 263 258 261 254 244 240 250 241 232 247
146 147 148 144 146 124 114 110 68 148 197 269 318 338 344 354 355 345 347 342 340 321 317 327 322 322 320 317 306 279 281 291 274 269 262 260 254 256 256 261 290 283 263
138 141 141 135 136 136 136 137 167 235 222 248 291 314 328 350 345 350 356 345 337 331 312 316 316 310 308 304 296 296 289 270 257 264 258 258 253 239 243 289 308 301 291
146 148 144 142 139 133 143 164 180 220 241 254 300 312 319 335 347 3 356 343 336 330 328 323 315 303 295 286 299 299 278 254 250 252 265 262 261 256 254 257 273 271 279
156 155 150 151 154 145 120 119 176 243 233 236 238 245 267 290 316 332 333 323 325 319 326 322 321 329 324 325 324 310 306 299 284 277 275 282 275 263 266 263 258 265 263
160 160 155 156 148 136 126 29 3 266 281 318 304 270 276 296 323 335 339 337 337 338 347 328 314 318 327 328 325 325 326 325 317 306 296 288 287 276 272 275 271 261 261
161 158 155 158 158 157 159 164 338 354 352 332 324 329 311 310 333 337 336 335 337 346 353 319 321 330 333 331 325 322 325 328 330 318 298 284 283 284 280 272 267 271 266
154 157 156 160 165 172 177 187 197 207 297 333 330 354 20 356 346 337 338 352 357 14 347 328 327 331 333 327 325 328 329 332 328 317 308 296 290 288 282 280 276 273 271
150 149 153 164 165 168 170 180 186 194 196 275 24 5 11 357 348 344 350 356 334 334 324 321 323 325 327 328 329 327 325 319 319 318 308 300 298 299 293 288 287 284 282
144 160 162 164 164 171 170 171 185 202 200 178 162 347 2 6 5 341 336 335 333 328 323 318 316 318 321 320 322 325 323 321 320 320 315 309 308 305 297 292 289 285 275
156 169 179 171 167 180 172 181 203 203 186 197 253 244 359 238 267 290 299 313 322 329 334 333 330 329 327 325 322 319 320 320 320 316 315 313 311 307 302 294 287 287 292
171 176 169 164 165 170 173 172 178 192 214 246 264 286 313 332 292 301 309 311 317 323 328 330 334 331 325 324 327 329 322 317 315 312 307 308 307 301 297 298 298 292 289
159 158 157 158 163 199 191 168 175 189 217 241 213 183 214 314 322 338 334 335 341 347 348 344 337 332 332 331 329 329 320 313 311 309 308 307 305 301 298 294 288 291 289
137 154 167 169 180 180 170 169 179 190 202 205 230 188 46 20 13 1 347 344 349 352 349 341 334 332 341 345 347 340 330 327 329 316 305 306 307 307 308 303 288 280 279
141 160 178 180 181 180 168 155 152 156 154 52 40 65 30 20 3 346 336 338 338 335 336 335 335 335 334 332 334 333 332 332 331 329 313 306 307 308 305 303 299 296 289
155 170 178 171 167 160 151 147 150 155 195 55 42 45 22 358 347 348 343 339 333 327 329 334 337 335 333 331 327 329 332 331 327 324 321 303 303 300 299 294 295 295 295
Height
1516 1517 1518 1519 1520 1521 1521 1521 1522 1522 1522 1522 1521 1521 1520 1520 1520 1519 1519 1518 1518 1517 1517 1516 1516 1515 1515 1514 1514 1514 1514 1514 1513 1512 1512 1512 1511 1510 1510 1510 1510 1510 1510
1513 1515 1516 1517 1517 1518 1519 1519 1520 1520 1520 1519 1519 1519 1518 1518 1517 1516 1516 1516 1515 1514 1514 1513 1513 1512 1512 1511 1511 1511 1511 1511 1510 1509 1509 1509 1508 1508 1508 1508 1508 1508 1508
1511 1512 1513 1514 1515 1515 1516 1517 1517 1517 1517 1517 1517 1516 1516 1515 1514 1514 1513 1513 1512 1511 1511 1510 1510 1509 1509 1508 1508 1508 1507 1507 1507 1507 1506 1506 1506 1507 1506 1506 1506 1506 1506
1508 1509 1511 1511 1512 1513 1514 1514 1515 1515 1515 1514 1514 1514 1513 1512 1512 1511 1510 1510 1509 1508 1508 1507 1507 1506 1506 1505 1505 1505 1504 1504 1504 1504 1504 1503 1504 1504 1504 1504 1503 1504 1504
1505 1507 1508 1509 1510 1511 1511 1511 1512 1512 1512 1512 1511 1511 1510 1510 1509 1508 1507 1506 1506 1505 1504 1504 1503 1503 1503 1503 1502 1501 1501 1501 1501 1501 1500 1501 1501 1501 1501 1501 1501 1501 1501
1503 1504 1505 1506 1507 1508 1508 1509 1509 1509 1509 1509 1508 1508 1507 1507 1506 1505 1504 1503 1502 1502 1501 1501 1500 1500 1500 1500 1499 1499 1499 1498 1498 1498 1497 1498 1498 1499 1499 1499 1498 1497 1497
1500 1501 1503 1503 1504 1505 1506 1506 1506 1506 1506 1505 1505 1505 1504 1503 1503 1502 1501 1500 1499 1499 1498 1498 1497 1497 1497 1496 1496 1495 1495 1495 1496 1495 1494 1494 1495 1495 1496 1495 1495 1495 1494
1497 1499 1499 1500 1501 1502 1502 1503 1503 1503 1503 1503 1502 1502 1501 1500 1500 1499 1498 1497 1496 1496 1495 1495 1494 1494 1493 1493 1492 1492 1492 1492 1492 1492 1491 1491 1492 1492 1492 1492 1492 1491 1491
1495 1496 1496 1497 1498 1499 1499 1500 1500 1500 1500 1500 1499 1499 1498 1497 1497 1496 1495 1494 1493 1492 1492 1491 1491 1490 1490 1489 1488 1488 1488 1488 1488 1488 1488 1488 1488 1489 1489 1489 1488 1488 1486
1491 1493 1494 1495 1495 1496 1497 1497 1497 1497 1497 1497 1496 1496 1496 1495 1494 1493 1492 1491 1490 1489 1488 1488 1488 1487 1487 1486 1485 1484 1484 1484 1484 1484 1484 1484 1484 1484 1485 1485 1484 1484 1483
1489 1490 1491 1492 1493 1494 1494 1494 1494 1494 1494 1494 1493 1493 1493 1492 1491 1490 1489 1488 1487 1486 1485 1484 1484 1484 1483 1482 1482 1481 1480 1480 1480 1480 1480 1480 1480 1480 1480 1480 1480 1480 1479
1487 1488 1489 1490 1490 1491 1491 1491 1491 1491 1491 1490 1490 1490 1489 1489 1488 1487 1486 1485 1484 1483 1482 1481 1481 1480 1479 1478 1478 1477 1477 1477 1476 1476 1476 1476 1476 1475 1475 1475 1475 1475 1475
1484 1485 1486 1487 1488 1488 1488 1488 1488 1488 1488 1487 1487 1486 1486 1486 1485 1484 1483 1482 1481 1480 1479 1478 1477 1477 1476 1475 1474 1474 1474 1473 1472 1472 1472 1472 1472 1472 1472 1471 1471 1471 1470
1481 1482 1483 1484 1484 1485 1485 1485 1485 1485 1484 1484 1484 1484 1483 1483 1482 1481 1480 1479 1478 1477 1476 1475 1474 1473 1473 1472 1471 1470 1470 1469 1469 1468 1468 1468 1468 1468 1467 1467 1467 1466 1466
1478 1479 1480 1480 1481 1481 1482 1482 1482 1482 1482 1482 1481 1481 1480 1479 1479 1479 1478 1476 1475 1474 1473 1472 1471 1470 1469 1469 1468 1467 1466 1465 1465 1464 1464 1464 1463 1463 1463 1463 1463 1463 1462
1475 1476 1477 1477 1478 1478 1478 1479 1479 1480 1480 1480 1479 1479 1478 1478 1477 1476 1475 1474 1473 1472 1471 1470 1469 1468 1467 1466 1465 1464 1463 1462 1461 1461 1460 1460 1460 1460 1459 1460 1459 1459 1458
1472 1473 1474 1475 1475 1475 1475 1475 1476 1477 1477 1477 1477 1476 1476 1475 1474 1473 1472 1472 1471 1470 1468 1467 1467 1466 1465 1464 1463 1461 1460 1459 1458 1458 1457 1457 1456 1456 1456 1456 1455 1455 1455
1470 1470 1471 1472 1472 1472 1473 1473 1473 1473 1473 1473 1474 1474 1473 1472 1472 1471 1470 1469 1468 1467 1466 1466 1465 1464 1463 1462 1460 1459 1457 1456 1455 1455 1454 1453 1453 1453 1452 1452 1452 1451 1451
1467 1467 1468 1469 1470 1470 1470 1470 1471 1471 1471 1471 1470 1471 1470 1470 1469 1468 1468 1467 1466 1465 1464 1463 1463 1462 1461 1459 1458 1456 1455 1454 1452 1451 1450 1450 1450 1449 1449 1449 1448 1448 1448
1464 1465 1466 1466 1467 1467 1468 1468 1468 1468 1468 1468 1468 1468 1468 1467 1466 1466 1465 1464 1464 1463 1462 1461 1460 1459 1458 1457 1455 1454 1452 1451 1449 1448 1447 1447 1446 1446 1446 1445 1445 1444 1444
1462 1462 1463 1464 1464 1465 1465 1465 1465 1466 1466 1466 1466 1466 1466 1465 1464 1464 1463 1462 1461 1460 1459 1459 1458 1457 1456 1454 1452 1451 1449 1448 1447 1446 1444 1444 1443 1443 1442 1442 1442 1441 1441
1459 1460 1460 1461 1461 1462 1462 1463 1463 1463 1463 1463 1463 1464 1463 1463 1462 1462 1461 1460 1459 1458 1457 1456 1455 1454 1453 1451 1450 1448 1447 1445 1444 1443 1442 1441 1440 1440 1439 1438 1438 1438 1437
1456 1457 1458 1458 1459 1459 1460 1460 1461 1461 1461 1461 1461 1461 1461 1460 1460 1459 1458 1457 1456 1455 1454 1453 1452 1451 1449 1448 1447 1445 1444 1442 1442 1440 1439 1438 1438 1437 1436 1435 1435 1434 1434
1453 1454 1455 1455 1456 1457 1457 1458 1458 1458 1458 1458 1458 1458 1458 1458 1457 1456 1456 1455 1453 1452 1451 1450 1449 1448 1446 1445 1444 1443 1442 1440 1439 1438 1437 1436 1435 1434 1433 1432 1432 1431 1431
1451 1451 1452 1453 1453 1454 1455 1455 1455 1456 1456 1456 1456 1456 1455 1455 1454 1454 1453 1452 1451 1449 1448 1447 1446 1445 1443 1442 1441 1440 1439 1438 1437 1435 1434 1433 1432 1431 1430 1430 1429 1429 1428
1448 1448 1449 1450 1451 1451 1452 1452 1452 1453 1453 1453 1453 1453 1453 1453 1452 1451 1450 1449 1448 1447 1446 1444 1443 1442 1440 1439 1438 1437 1436 1434 1433 1433 1431 1430 1429 1428 1427 1427 1426 1426 1425